Location: Poughquag
(41.6090°N, 73.6820°W)
Time: 14:24:13
(UTC-04:00)

Vanguard 2 - Pass Details

Date: 04 June 2020
Orbit: 552 x 2938 km, 32.9° (Epoch: 05 July)

Event Time Altitude Azimuth Distance (km) Brightness Sun altitude
Rises 18:59:48 0° 244° (WSW) 6,601 13.0 13.6°
Reaches altitude 10° 19:04:42 10° 240° (WSW) 5,375 12.5 12.7°
Maximum altitude 19:18:54 50° 172° (S) 2,363 10.0 10.2°
Drops below altitude 10° 19:27:52 10° 100° (E) 3,489 10.3 8.7°
Sets 19:30:22 0° 95° (E) 4,195 10.7 8.3°
